Location: Beddau
(51.5575°N, 3.3561°W)
Time: 13:05:45
(UTC+00:00)

Cosmos 2322 Rocket - Pass Details

Date: 03 March 2021
Orbit: 832 x 852 km, 71.0° (Epoch: 10 April)

Event Time Altitude Azimuth Distance (km) Brightness Sun altitude
Rises 20:52:11 0° 249° (WSW) 3,374 5.9 -27.3°
Reaches altitude 10° 20:54:58 10° 261° (W) 2,444 5.3 -27.6°
Maximum altitude 20:59:43 28° 319° (NW) 1,543 4.1 -28.3°
Drops below altitude 10° 21:04:30 10° 17° (NNE) 2,462 4.7 -28.9°
Sets 21:07:20 0° 30° (NNE) 3,403 5.4 -29.3°
